This is the latest recevied weather packets stored in our database for station/object KB4MOX. If no packets are shown the sender has not sent any weather packets the latest 10 day(s).
| Time | Temp. | Humidity | Pressure | Rain* | Wind** | Luminosity | Snow |
|---|---|---|---|---|---|---|---|
| 1787624220 | 25° C | 63% | 1016.6 hPa | 0 mm | - | 0 W/m² | - |
| 1787623916 | 25° C | 63% | 1016.4 hPa | 0 mm | - | 0 W/m² | - |
| 1787623615 | 24.44° C | 63% | 1016.5 hPa | 0 mm | - | 0 W/m² | - |
| 1787623310 | 24.44° C | 65% | 1016.1 hPa | 0 mm | - | 0 W/m² | - |
| 1787623009 | 25° C | 63% | 1016.3 hPa | 0 mm | - | 0 W/m² | - |
| 1787622705 | 25° C | 66% | 1016.3 hPa | 0 mm | - | 0 W/m² | - |
| 1787622402 | 25° C | 65% | 1016.1 hPa | 0 mm | - | 0 W/m² | - |
| 1787622102 | 25° C | 65% | 1016 hPa | 0 mm | - | 0 W/m² | - |
| 1787621796 | 25° C | 65% | 1016 hPa | 0 mm | - | 0 W/m² | - |
| 1787621491 | 25° C | 66% | 1015.9 hPa | 0 mm | - | 0 W/m² | - |
| 1787621187 | 25° C | 65% | 1015.7 hPa | 0 mm | - | 0 W/m² | - |
| 1787620883 | 25° C | 64% | 1015.6 hPa | 0 mm | - | 0 W/m² | - |
| 1787620583 | 25° C | 64% | 1015.5 hPa | 0 mm | - | 0 W/m² | - |
| 1787620279 | 25.56° C | 62% | 1015.6 hPa | 0 mm | - | 0 W/m² | - |
| 1787619974 | 25.56° C | 63% | 1015.3 hPa | 0 mm | - | 0 W/m² | - |
| 1787619669 | 26.11° C | 62% | 1015.3 hPa | 0 mm | - | 0 W/m² | - |
| 1787619365 | 26.11° C | 60% | 1015.4 hPa | 0 mm | - | 0 W/m² | - |
| 1787619063 | 26.11° C | 59% | 1015.3 hPa | 0 mm | - | 0 W/m² | - |
| 1787618759 | 26.67° C | 59% | 1015.2 hPa | 0 mm | - | 0 W/m² | - |
| 1787618456 | 26.67° C | 58% | 1015.4 hPa | 0 mm | - | 0 W/m² | - |
| 1787618152 | 27.22° C | 57% | 1015 hPa | 0 mm | - | 0 W/m² | - |
| 1787617847 | 27.22° C | 55% | 1014.9 hPa | 0 mm | - | 0 W/m² | - |
| 1787617542 | 27.78° C | 54% | 1014.8 hPa | 0 mm | - | 0 W/m² | - |
| 1787617242 | 28.33° C | 53% | 1014.8 hPa | 0 mm | - | 0 W/m² | - |
| 1787616972 | 28.33° C | 52% | 1014.8 hPa | 0 mm | - | 1 W/m² | - |
* Rain latest hour (hover to see other rain measurements)
** Current wind speed in m/s (hover to see current wind gust speed)